Regional Weather Roundup
Issued by NWS Wakefield, VA

Home | Current Version | Previous Version | Graphics & Text | Print | Product List | Glossary On
Versions: 1 2 3 4 5 6 7 8 9 10 11 12 13 14 15 16 17 18 19 20 21 22 23 24 25 26 27 28 29 30 31 32 33 34 35 36 37 38 39 40 41 42 43 44 45 46 47 48 49 50
000
ASUS41 KAKQ 250314
RWRAKQ

REGIONAL WEATHER ROUNDUP
NATIONAL WEATHER SERVICE WAKEFIELD VA
1100 PM EDT SUN MAY 24 2015

Note: "fair" indicates few or no clouds below 12,000 feet with no
significant weather and/or obstructions to visibility. * = Denotes
station may not report precipitation (e.g., rain,snow,etc.),
thunder or fog.

VAZ042-051-052>054-056-250400-
NORTHERN VIRGINIA

CITY           SKY/WX    TMP DP  RH WIND       PRES   REMARKS
WASH NATIONAL  MOCLDY    72  60  66 S8        30.27S
DULLES         PTCLDY    70  55  59 S7        30.26S
FORT BELVOIR   CLEAR     67  57  70 SE2       30.27S
QUANTICO       LGT RAIN  73  58  59 SW6       30.28S
FREDERICKSBRG* CLEAR     73  58  58 S8        30.27S
STAFFORD*      CLEAR     67  55  64 CALM      30.31S
WARRENTON      CLEAR     71  58  65 S3        30.27R
CULPEPER*      CLEAR     64  55  73 CALM      30.28R
MANASSAS*      CLEAR     66  57  72 S3        30.27R
LEESBURG*      CLEAR     72  59  64 S6        30.27S
WINCHESTER     PTCLDY    68  50  52 S3        30.25S
FRONT ROYAL*   FAIR      70  54  56 SW5       30.25S
LURAY*         FAIR      70  55  60 S5        30.26S
$$

VAZ048-049-060>072-079>083-250400-
CENTRAL AND SOUTH CENTRAL VIRGINIA

CITY           SKY/WX    TMP DP  RH WIND       PRES   REMARKS
RICHMOND       PTCLDY    67  57  70 S7        30.31R
CHESTERFIELD*  NOT AVBL
PETERSBURG*    CLEAR     60  58  94 CALM      30.32R
HANOVER        CLEAR     65  56  72 CALM      30.32R
TAPPAHANNOCK*  CLEAR     65  55  69 CALM      30.31R
QUINTON*       FAIR      66  60  80 CALM      30.31R
CHARLOTTSVILLE CLEAR     69  55  60 SW8       30.28S
GORDONSVILLE*  FAIR      61  57  85 CALM      30.28S
ORANGE*        CLEAR     64  55  72 CALM      30.30S
LOUISA*        CLEAR     70  57  64 S5        30.28S
BUMPASS*       FAIR      68  56  64 CALM      30.29S
FARMVILLE*     CLEAR     66  56  69 CALM      30.29S
CREWE*         FAIR      60  58  91 CALM      30.31S
FORT PICKETT*  FAIR      64  57  77 CALM      30.32R
CHASE CITY*    FAIR      64  60  88 CALM      30.32S
CLARKSVILLE*   FAIR      61  57  88 CALM      30.32S
SOUTH HILL*    CLEAR     61  56  85 CALM      30.38S
LAWRENCEVILLE* FAIR      64  59  82 CALM      30.32S
EMPORIA*       CLEAR     64  55  72 SE3       30.34S
$$

VAZ088>098-250400-
SOUTHEAST VIRGINIA

CITY           SKY/WX    TMP DP  RH WIND       PRES   REMARKS
NORFOLK        CLEAR     67  54  63 S9        30.33S
VIRGINIA BEACH PTCLDY    68  57  68 S6        30.33S
NORFOLK NAVAL  CLEAR     75  54  47 S9        30.34S
WEST POINT*    CLEAR     73  57  57 S8        30.33R
SALUDA*        FAIR      67  61  79 S5        30.31R
NEWPORT NEWS   CLEAR     74  58  57 S13       30.33R
LANGLEY AFB    CLEAR     70  57  64 S7        30.32S
FORT EUSTIS    CLEAR     70  59  66 S8        30.31R
WILLIAMSBURG*  CLEAR     73  61  64 S8        30.33S
HR EXEC AP*    FAIR      66  55  68 S6        30.35S
FRANKLIN*      CLEAR     67  55  64 S7        30.34R
WAKEFIELD      CLEAR     67  58  72 S5        30.33R
$$

VAZ020-022-025-037-045-250400-
WEST CENTRAL AND SOUTHWEST VIRGINIA

CITY           SKY/WX    TMP DP  RH WIND       PRES   REMARKS
STAUNTON*      CLEAR     65  53  64 SW3       30.32R
WAYNESBORO*    FAIR      67  53  59 CALM      30.31S
HOT SPRINGS VA CLEAR     61  49  64 S9        30.38S
LYNCHBURG      CLEAR     63  54  72 S3        30.33R
DANVILLE       CLEAR     68  55  63 S3        30.32R
SOUTH BOSTON*  FAIR      62  57  83 CALM      30.32R
MARTINSVILLE   CLEAR     59  56  87 CALM      30.35R
ROANOKE        PTCLDY    69  53  56 SE5       30.34R
BLACKSBURG     CLEAR     61  51  70 CALM      30.38S
DUBLIN*        CLEAR     63  53  71 CALM      30.36S
MARION*        CLEAR     64  50  61 CALM      30.37S
HILLSVILLE*    CLEAR     62  52  69 S6        30.37S
RICHLANDS*     FAIR      66  51  57 S6        30.33S
WISE*          CLEAR     66  46  48 S9        30.33R
ABINGDON*      CLEAR     68  50  51 S5        30.32R
$$

MDZ021>025-VAZ099-100-250400-
SOUTHERN MARYLAND AND THE DELMARVA PENINSULA

CITY           SKY/WX    TMP DP  RH WIND       PRES   REMARKS
PATUXENT RIVER CLEAR     67  59  75 S9        30.28F
BAY BRIDGE APT   N/A    N/A N/A N/A SE8       30.28S
LEONARDTOWN    CLEAR     64  57  77 SE3       30.30S
DOVER          MOCLDY    66  57  72 S7        30.26S
GEORGETOWN     CLEAR     62  52  69 S6        30.32R
EASTON         PTCLDY    69  60  74 S6        30.32F
CAMBRIDGE      PTCLDY    70  59  68 S5        30.29F
SALISBURY      CLEAR     60  52  74 S3        30.31S
OCEAN CITY     CLEAR     64  55  72 SW13      30.32S
WALLOPS ISLAND CLEAR     63  56  78 S14       30.33S
ACCOMACK*      CLEAR     64   5   9 S8        30.32F
$$

NCZ012>017-030>032-250400-
NORTH CENTRAL AND EASTERN NORTH CAROLINA

CITY           SKY/WX    TMP DP  RH WIND       PRES   REMARKS
ROANOKE RAPIDS FAIR      68  55  64 S7        30.33S
RALEIGH        PTCLDY    70  56  61 S7        30.33R
ELIZABETH CITY CLEAR     67  57  70 S7        30.35S
AHOSKIE*       CLEAR     65  55  70 S5        30.35R
EDENTON*       CLEAR     69  59  71 S9        30.35S
CURRITUCK*     CLEAR     67  55  65 CALM      30.35S
KILL DEVIL HLS CLEAR     65  55  71 CALM      30.35S
MANTEO         CLEAR     66  56  70 S5        30.36F
CAPE HATTERAS  CLEAR     62  56  80 E3        30.36S
TARBORO*       FAIR      69  57  66 S5        30.35S
GOLDSBORO      CLEAR     68  59  72 CALM      30.33R
WASHINGTON     CLEAR     68  57  67 S5        30.36S
GREENVILLE     PTCLDY    70  57  64 S7        30.35S
NEW BERN       CLEAR     63  57  81 CALM      30.37R
WILMINGTON     PTCLDY    67  60  78 CALM      30.35R
$$

VAZ048-250400-
ELSEWHERE

CITY           SKY/WX    TMP DP  RH WIND       PRES   REMARKS
HARRISBURG PA  MOCLDY    68  54  60 S5        30.24S
BALTIMORE      PTCLDY    67  60  78 CALM      30.27S
ANNAPOLIS      MOCLDY    68  60  75 SE6       30.27S
ANDREWS AFB    CLEAR     66  60  80 S7        30.27S
PHILADELPHIA   PTCLDY    67  54  63 S5        30.29R
HENDERSON NC   CLEAR     68  54  61 S7        30.33S
GREENSBORO     PTCLDY    69  54  58 S3        30.32R
ROCKY MOUNT    CLEAR     70  56  61 S6        30.34R
$$

VAZ100-250400-
MARINE

STATION/POSITION TIME  TEMP    WIND        PRES    WAVE   SWELL
                       AIR SEA DIR/SP/G            HT/PER HT/PER
                 (UTC) (F)     (DEG/KT/KT) (MB)    (FT/S) (FT/S)
BRANDYWINE LGT   0200   66 64  210/ 17/ 19 1026.1R
CAPE MAY NJ      0200   64 67  160/  7/ 10 1026.0R
LEWES DE         0200   66 63  190/  4/  6 1026.3R
15NM E FENWICK I 0250   61 60              1026.7R   2/ 4
OCEAN-CITY-INLET 0200   64 66  210/ 14/ 17 1026.5R
WACHAPREAGUE VA  0200   66 71  220/  9/ 12 1027.0R
THOMAS POINT MD  0300   68 66  160/ 15/ 16 1025.5F
GOOSES REEF MD   0300   67 66  180/ 10/ 12 1026.2S   2/ 3
SOLOMONS ISLAND  0200      70                N/A
BISHOPS HEAD MD  0200   69 71  190/ 12/ 15 1025.6R
PINEY POINT MD   0200          170/  8/ 10   N/A
CAMBRIDGE MD     0200   68 69  170/  5/ 10 1025.6R
LEWISETTA VA     0200   69 71              1025.6R
RAPPAHANNOCK LGT 0200          170/ 17/ 19 1027.0R
STINGRAY PT      0300   71 69  190/ 10/ 12 1026.0R   2/ 3
YORK RVR RNG VA  0200   71     190/ 13/ 14 1025.9R
YORKTOWN VA      0200   73 72  180/  8/ 11 1026.3R
JAMESTOWN VA     0300   71 74  190/ 10/ 12 1025.8R
DOMINION TERM VA 0200   72     170/ 12/ 14 1026.8R
KIPTOPEKE VA     0200      74  170/ 14/ 17   N/A
CHES BAY BRIDGE  0200   69 68  160/ 11/ 13 1026.5R
CAPE HENRY VA    0200   68     170/ 10/ 12 1025.8R
CHESAPEAKE LGHT  0200   66     180/ 19/ 19 1027.5R
WILLOUBY STN VA  0200   72     190/ 15/ 17 1027.5R
CAPE HENRY BUOY  0228      63                N/A     2/ 4
1ST LANDING BUOY 0300      68              1026.6R
CAPE CHARLES BUO 0226      66                N/A     3/ 4   2/ 9
OFFSHORE WE BUOY 0211      61                N/A     2/ 3   2/ 9
64NM E OF VA BCH 0250   64 62  160/  8/ 10 1027.6R   1/ 7   2/ 7
DUCK PIER NC     0200   65 64  150/  7/  8 1026.9R
44100 DUCK FRF   0224      64                N/A     2/ 6
44056 DUCK FRF   0211      64                N/A     1/ 7
OREGON INLET NC  0200   66 73  130/  4/  7 1028.1R
HATTERAS NC      0200   69 75   70/  2/  3 1027.7R
DIAMOND SHLS NC  0250   74 77  110/  6/ 10 1028.2R   2/ 6   2/ 6
CAPE LOOKOUT NC  0300   73     120/  9/ 10 1027.8R
$$


USA.gov is the U.S. government's official web portal to all federal, state and local government web resources and services.